[[{"header":{"parameterUnit":"m.s-1","parameterCategory":1,"la1":30.2991,"la2":30.254,"lo1":-89.0895,"lo2":-89.0444,"dy":0.0017,"dx":0.0017,"nx":28,"ny":28,"refTime":"2023-03-18T21:00:00:Z","depth":0,"parameterNumber":2,"parameterNumberName":"U-component_of_WINDS"},"data":[0,0,0,0,0,0,0,0,0,0,0,0,0,0,0,0,0,0,0,0,0,0,0,0,0,0,0,0,0,0,0,0,0,0,0,0,0,0,0,0,0,0,0,0,0,0,0,0,0,0,0,0,0,0,0,0,0,0,1.9657,1.9657,0,1.966,1.966,1.966,1.9644,1.9644,1.9643,1.9643,1.9645,1.9646,1.9646,0,0,0,0,0,0,0,0,0,0,0,0,0,1.9637,1.9638,1.9657,1.9657,1.9657,1.966,1.966,1.966,1.9644,1.9644,1.9643,1.9643,1.9645,1.9646,1.9646,0,0,0,0,0,0,0,0,0,0,0,0,0,1.9644,1.9638,1.9657,1.9649,1.9649,1.966,1.966,1.966,1.9644,1.9644,1.9643,1.9642,1.9645,1.9646,1.9646,1.9664,0,0,1.9649,1.9649,0,0,0,0,0,0,0,0,1.9643,1.9644,1.965,1.965,1.9649,1.9651,1.9654,1.9661,1.9645,1.9646,1.9643,1.9642,1.9648,1.9648,1.965,1.9664,1.9665,1.9649,1.9649,1.9649,1.965,0,0,0,0,0,0,0,1.9643,1.9644,1.9658,1.965,1.965,1.9646,1.9646,1.9655,1.9651,1.9646,1.9645,1.9645,1.9647,1.965,1.965,1.9665,1.9649,1.9649,1.965,1.965,1.9695,1.9696,0,0,0,0,0,0,1.9643,1.9644,1.9658,1.9658,1.9645,1.9647,1.9647,1.9651,1.965,1.965,1.9646,1.9645,1.9649,1.9649,1.965,1.9672,1.9649,1.965,1.965,1.9695,1.9696,1.9696,0,0,0,0,0,0,1.9643,1.9645,1.9658,1.9651,1.9652,1.9648,1.9653,1.9651,1.9654,1.9651,1.965,1.9649,1.9648,1.9649,1.9661,1.9672,1.965,1.9651,1.9694,1.9695,1.9696,1.9715,0,0,0,0,0,0,1.9643,1.9645,1.9651,1.9651,1.9652,1.9669,1.9653,1.9652,1.9655,1.9653,1.9653,1.9653,1.9648,1.966,1.9662,1.9672,1.9652,1.9693,1.9694,1.9696,1.9714,1.9717,1.972,0,0,0,0,0,1.9642,1.9656,1.9652,1.9653,1.9661,1.9669,1.967,1.9664,1.9656,1.9663,1.9661,1.9653,1.9671,1.9662,1.9664,1.9674,1.9692,1.9694,1.9695,1.9712,1.9716,1.972,0,0,0,0,0,0,1.9657,1.9656,1.9651,1.9665,1.9668,1.9667,1.9675,1.9669,1.9673,1.9671,1.9664,1.9664,1.9678,1.9677,1.9667,1.9692,1.968,1.9682,1.9692,1.9696,1.9699,1.9698,1.9652,0,0,0,0,0,1.9662,1.9669,1.9668,1.9681,1.9682,1.9679,1.9682,1.9678,1.968,1.968,1.9679,1.9681,1.9688,1.9692,1.9697,1.9714,1.9714,1.9722,1.9725,1.9728,1.973,1.9739,1.9743,1.9702,1.9702,1.9702,0,0,1.9672,1.9673,1.9678,1.9684,1.9685,1.9693,1.9679,1.9688,1.9694,1.9681,1.9693,1.9693,1.9695,1.971,1.9716,1.971,1.9741,1.973,1.9732,1.9732,1.9742,1.9746,1.9749,1.9703,1.9703,1.9703,0,0,1.9695,1.9696,1.9708,1.971,1.9712,1.971,1.9713,1.9713,1.9712,1.9724,1.9716,1.9723,1.9733,1.9735,1.9738,1.9764,1.9756,1.9766,1.9781,1.9791,1.9794,1.9797,1.9807,1.9811,1.9768,1.9768,1.9768,0,1.9708,1.9719,1.9714,1.9724,1.9727,1.9718,1.9729,1.9731,1.9735,1.9738,1.9731,1.9745,1.9746,1.9761,1.9768,1.977,1.9774,1.9765,1.9794,1.9797,1.98,1.9809,1.9813,1.9769,1.9769,1.9769,1.9769,0,1.9735,1.9743,1.9752,1.9757,1.9762,1.9772,1.9769,1.9774,1.977,1.9769,1.9782,1.9782,1.9788,1.9792,1.9787,1.9807,1.9804,1.9796,1.9783,1.9805,1.9814,1.9817,1.9771,1.977,1.977,1.977,0,0,1.9766,1.977,1.9773,1.9776,1.9778,1.9785,1.9796,1.9802,1.9807,1.9811,1.982,1.983,1.9823,1.9826,1.9822,1.9831,1.9852,1.9822,1.9822,1.9828,1.9875,1.9881,1.9885,1.9848,1.9849,1.9849,1.9875,0,1.9789,1.9808,1.9804,1.9822,1.983,1.9822,1.9832,1.9835,1.9834,1.9841,1.9841,1.9848,1.9838,1.984,1.9849,1.9848,1.9862,1.9846,1.9856,1.9857,1.9856,1.989,1.9896,1.992,1.9879,1.9879,1.988,0,1.9818,1.9824,1.9843,1.9846,1.9849,1.9858,1.9864,1.9871,1.9875,1.9874,1.9878,1.9873,1.9884,1.9872,1.9888,1.9877,1.9881,1.9882,1.9883,1.9883,1.9869,1.9891,1.9928,1.9932,1.9885,1.9884,1.9884,0,1.9839,1.9852,1.9865,1.9868,1.9871,1.9878,1.988,1.9883,1.9887,1.9893,1.9896,1.9903,1.9907,1.9913,1.991,1.9901,1.9926,1.9913,1.9926,1.9926,1.9931,1.9931,1.9969,1.9934,1.9934,1.9934,1.9934,0,1.9865,1.9877,1.9875,1.9883,1.9897,1.9893,1.9907,1.9908,1.9911,1.992,1.9913,1.9921,1.9917,1.9925,1.9923,1.9937,1.9939,1.9938,1.9938,1.9939,1.9939,1.9941,1.994,1.9935,1.9935,1.9935,1.9935,0,1.9891,1.989,1.9904,1.9907,1.9908,1.9918,1.9921,1.9929,1.9928,1.994,1.9942,1.9941,1.9951,1.9949,1.9959,1.9957,1.9975,1.9972,1.9974,1.9973,1.9986,1.9985,2.0027,2.0032,1.9994,1.9994,1.9995,0,1.9907,1.9917,1.9921,1.9927,1.9929,1.9938,1.9943,1.994,1.9946,1.9952,1.996,1.9969,1.9975,1.9991,1.9991,1.9999,1.9997,2.0011,1.9998,1.9999,1.9997,1.9997,1.9998,2.0013,2.0014,2.0014,2.0014,0,1.9937,1.9936,1.9944,1.9952,1.9959,1.9965,1.997,1.9975,1.9973,1.998,1.999,1.9995,2.0006,2.0015,2.0023,2.0025,2.002,2.0019,2.0022,2.0023,2.0024,2.0024,1.9981,2.0018,2.0017,2.0017,2.0017,2.0017,1.9959,1.9967,1.9972,1.9981,1.9985,1.9991,1.9999,2.0,2.0009,2.0018,2.0016,2.0027,2.0032,2.0042,2.0045,2.0054,2.0049,2.0054,2.0055,2.0056,2.0058,2.0023,2.0056,2.0055,2.0055,2.0055,2.0055,0,1.9988,1.9991,2.0,2.0008,2.0016,2.0011,2.0017,2.0024,2.0034,2.0039,2.0047,2.0059,2.0068,2.007,2.0079,2.0086,2.0084,2.0089,2.0088,2.0089,2.0062,2.0058,2.009,2.009,2.009,2.009,2.009,2.009,2.0004,2.0019,2.0019,2.0036,2.0039,2.005,2.0054,2.006,2.0064,2.0078,2.0086,2.0088,2.0092,2.0101,2.011,2.011,2.0114,2.012,2.0119,2.0094,2.009,2.0087,2.0084,2.0121,2.0121,2.0145,2.0146,2.0146]},{"header":{"parameterUnit":"m.s-1","parameterCategory":1,"la1":30.2991,"la2":30.254,"lo1":-89.0895,"lo2":-89.0444,"dy":0.0017,"dx":0.0017,"nx":28,"ny":28,"refTime":"2023-03-18T21:00:00:Z","depth":0,"parameterNumber":3,"parameterNumberName":"V-component_of_WINDS"},"data":[0,0,0,0,0,0,0,0,0,0,0,0,0,0,0,0,0,0,0,0,0,0,0,0,0,0,0,0,0,0,0,0,0,0,0,0,0,0,0,0,0,0,0,0,0,0,0,0,0,0,0,0,0,0,0,0,0,0,-6.0176,-6.0177,0,-6.0251,-6.0252,-6.0252,-6.023,-6.0228,-6.0227,-6.0225,-6.0297,-6.03,-6.0304,0,0,0,0,0,0,0,0,0,0,0,0,0,-6.0011,-6.0014,-6.0176,-6.0177,-6.0178,-6.0251,-6.0252,-6.0253,-6.023,-6.0228,-6.0226,-6.0224,-6.0296,-6.03,-6.0304,0,0,0,0,0,0,0,0,0,0,0,0,0,-6.0084,-6.0015,-6.0176,-6.0175,-6.0176,-6.025,-6.0252,-6.0253,-6.023,-6.0228,-6.0226,-6.0223,-6.0295,-6.03,-6.0305,-6.0382,0,0,-6.032,-6.0322,0,0,0,0,0,0,0,0,-6.0079,-6.009,-6.0175,-6.0176,-6.0177,-6.0229,-6.022,-6.0296,-6.0231,-6.021,-6.0225,-6.0222,-6.0276,-6.0282,-6.0301,-6.0386,-6.0389,-6.032,-6.0323,-6.0326,-6.0327,0,0,0,0,0,0,0,-6.0074,-6.0086,-6.0205,-6.0176,-6.0177,-6.0171,-6.0178,-6.0234,-6.0255,-6.0211,-6.021,-6.0219,-6.0276,-6.0297,-6.0303,-6.039,-6.032,-6.0325,-6.0328,-6.033,-6.0544,-6.0546,0,0,0,0,0,0,-6.0069,-6.0082,-6.0203,-6.0208,-6.0121,-6.0175,-6.0184,-6.0214,-6.0254,-6.0258,-6.0221,-6.0218,-6.0289,-6.0297,-6.0305,-6.04,-6.0326,-6.033,-6.0333,-6.0541,-6.0544,-6.0547,0,0,0,0,0,0,-6.0066,-6.008,-6.02,-6.0145,-6.0159,-6.0181,-6.0215,-6.0217,-6.0237,-6.0262,-6.0265,-6.0239,-6.0288,-6.0298,-6.0364,-6.0402,-6.0333,-6.0337,-6.0538,-6.0542,-6.0546,-6.059,0,0,0,0,0,0,-6.0061,-6.0079,-6.0109,-6.0146,-6.0163,-6.0259,-6.0217,-6.022,-6.0247,-6.0243,-6.0279,-6.0282,-6.0286,-6.0357,-6.0369,-6.0408,-6.0341,-6.0535,-6.054,-6.0545,-6.0586,-6.0595,-6.0604,0,0,0,0,0,-6.0055,-6.0118,-6.0111,-6.0126,-6.0201,-6.0261,-6.027,-6.0275,-6.025,-6.028,-6.0296,-6.0281,-6.0396,-6.0364,-6.0377,-6.0419,-6.0532,-6.0538,-6.0544,-6.0581,-6.0593,-6.0604,0,0,0,0,0,0,-6.0083,-6.0122,-6.0115,-6.0191,-6.0223,-6.0257,-6.0295,-6.0287,-6.0326,-6.032,-6.0323,-6.0332,-6.04,-6.0415,-6.0378,-6.0497,-6.046,-6.0469,-6.0484,-6.0496,-6.0505,-6.0499,-6.0345,0,0,0,0,0,-6.0098,-6.0145,-6.0176,-6.024,-6.0257,-6.0274,-6.03,-6.0301,-6.0333,-6.0346,-6.0366,-6.0397,-6.0441,-6.0469,-6.051,-6.0588,-6.0596,-6.0623,-6.0632,-6.064,-6.0647,-6.0691,-6.0704,-6.0567,-6.0567,-6.0567,0,0,-6.013,-6.0157,-6.0186,-6.0246,-6.0271,-6.0319,-6.0285,-6.0336,-6.0371,-6.0353,-6.0418,-6.0434,-6.0469,-6.0542,-6.0575,-6.0557,-6.0687,-6.0647,-6.0653,-6.0657,-6.0699,-6.0712,-6.0723,-6.0571,-6.057,-6.057,0,0,-6.0212,-6.0237,-6.0294,-6.032,-6.0359,-6.037,-6.0384,-6.042,-6.0431,-6.0496,-6.0484,-6.0525,-6.0599,-6.0625,-6.0648,-6.0742,-6.073,-6.0756,-6.0803,-6.0846,-6.0857,-6.0866,-6.0901,-6.0913,-6.0763,-6.0763,-6.0763,0,-6.0245,-6.0318,-6.0323,-6.0377,-6.0404,-6.0393,-6.0451,-6.0475,-6.0525,-6.0544,-6.0523,-6.0618,-6.064,-6.072,-6.0743,-6.0762,-6.0778,-6.0751,-6.0855,-6.0864,-6.0873,-6.0907,-6.0919,-6.0766,-6.0766,-6.0765,-6.0765,0,-6.0358,-6.0408,-6.0449,-6.0501,-6.0532,-6.0587,-6.0601,-6.0633,-6.0632,-6.0645,-6.0712,-6.0739,-6.0786,-6.0805,-6.0803,-6.0885,-6.0873,-6.0854,-6.0817,-6.0889,-6.0921,-6.0933,-6.077,-6.0769,-6.0768,-6.0768,0,0,-6.0457,-6.0513,-6.0528,-6.0552,-6.0596,-6.0634,-6.0689,-6.0737,-6.0765,-6.0799,-6.0846,-6.091,-6.0894,-6.092,-6.0921,-6.0958,-6.1033,-6.0935,-6.0936,-6.0953,-6.1126,-6.114,-6.1155,-6.1026,-6.1028,-6.103,-6.1123,0,-6.0544,-6.0642,-6.065,-6.0738,-6.0786,-6.0777,-6.0824,-6.0856,-6.087,-6.0911,-6.0926,-6.0973,-6.0947,-6.0963,-6.0999,-6.1016,-6.1068,-6.1009,-6.1068,-6.107,-6.106,-6.1171,-6.1186,-6.1273,-6.1135,-6.1137,-6.1139,0,-6.0657,-6.0699,-6.0792,-6.0831,-6.0851,-6.0894,-6.094,-6.098,-6.1015,-6.1023,-6.1054,-6.1051,-6.1107,-6.1069,-6.1146,-6.1106,-6.1131,-6.1143,-6.1146,-6.1152,-6.1109,-6.118,-6.13,-6.1314,-6.1158,-6.1156,-6.1155,0,-6.0722,-6.0801,-6.0868,-6.0888,-6.0935,-6.0965,-6.0986,-6.102,-6.1049,-6.1088,-6.1107,-6.1152,-6.1177,-6.1211,-6.122,-6.1192,-6.1298,-6.126,-6.1306,-6.1306,-6.1329,-6.1327,-6.1455,-6.1344,-6.1344,-6.1343,-6.1343,0,-6.0818,-6.0875,-6.0898,-6.0939,-6.1004,-6.1012,-6.1076,-6.1094,-6.1125,-6.1169,-6.1163,-6.1204,-6.1213,-6.1256,-6.1264,-6.1327,-6.1338,-6.1346,-6.1347,-6.1347,-6.1346,-6.1363,-6.1357,-6.1347,-6.1346,-6.1345,-6.1345,0,-6.0901,-6.0918,-6.0991,-6.103,-6.1041,-6.1087,-6.112,-6.116,-6.1174,-6.123,-6.1243,-6.1265,-6.1316,-6.1329,-6.1388,-6.1393,-6.1469,-6.1464,-6.1458,-6.1457,-6.1503,-6.1499,-6.1646,-6.1666,-6.1541,-6.1543,-6.1544,0,-6.0961,-6.1006,-6.1051,-6.1081,-6.1104,-6.1152,-6.1183,-6.1193,-6.1225,-6.127,-6.1304,-6.1355,-6.1396,-6.1477,-6.1497,-6.1543,-6.154,-6.1588,-6.1546,-6.1545,-6.1541,-6.1539,-6.1544,-6.1596,-6.1598,-6.1599,-6.1599,0,-6.1066,-6.1073,-6.1118,-6.1168,-6.1205,-6.1243,-6.128,-6.1305,-6.132,-6.1356,-6.1409,-6.1441,-6.1504,-6.1554,-6.1601,-6.1621,-6.1613,-6.1613,-6.1626,-6.1626,-6.1621,-6.1626,-6.148,-6.1609,-6.1608,-6.1607,-6.1607,-6.1607,-6.114,-6.118,-6.1219,-6.127,-6.13,-6.1335,-6.1375,-6.1395,-6.144,-6.1493,-6.1496,-6.1554,-6.159,-6.1652,-6.1675,-6.172,-6.1705,-6.1724,-6.1729,-6.1733,-6.1738,-6.1614,-6.1728,-6.1728,-6.1728,-6.1727,-6.1727,0,-6.1246,-6.1271,-6.1318,-6.1372,-6.1412,-6.1403,-6.1444,-6.1478,-6.153,-6.1564,-6.1606,-6.1667,-6.1717,-6.1742,-6.1791,-6.1822,-6.182,-6.1834,-6.1832,-6.1837,-6.1748,-6.1732,-6.1836,-6.1835,-6.1835,-6.1835,-6.1835,-6.1835,-6.1306,-6.1374,-6.1386,-6.1469,-6.1493,-6.1552,-6.1576,-6.1608,-6.1637,-6.1706,-6.1748,-6.1765,-6.1796,-6.1848,-6.1893,-6.1899,-6.1917,-6.1934,-6.1938,-6.1854,-6.1843,-6.1833,-6.1818,-6.1938,-6.1938,-6.2024,-6.2025,-6.2026]}]]